www.pogodaiklimat.ru

Погода и климат >> Архив погоды >> Россия >> Краснодарский край >> Сочи аэропорт (Адлер)


ПОГОДА в Сочи аэропорту (Адлер)

  • Прогноз погоды в Сочи аэропорту (Адлер)
  • Монитор погоды в Сочи аэропорту (Адлер)
  • Климат города

АРХИВ ПОГОДЫ в Сочи аэропорту (Адлер)

Время (UTC), дата Ветер
(напр.,м/с)
 
Видим.   Явления Облачность Т
(С)
Тd
(С)
f
(%)
Тe
(С)
Тes
(С)
Комфортность P
(гПа)
Po
(гПа)
Тmin
(С)
Tmax
(С)
R
(мм)
R24
(мм)
S
(см)
03 12.01 СВ 2 4000 м 10/0
[Ac trans Ci fib]
+6.7 +4.6 86 +4 +4 1013.7 1011.8 +5.5 0.1
06 12.01 ЮВ 5 20 км 10/0
[Ac und]
+11.5 +5.5 67 +9 +9 1014.4 1012.6
09 12.01 ЮВ 5-10
{11}
10 км слабый ливневой дождь 10/8 1500 м
[Cb cap Ac und]
+11.7 +6.4 70 +9 +9 1015.6 1013.8
12 12.01 ЮВ 4
{13}
10 км {ливн. осадки} 10/10 1080 м
[Cb cap]
+11.4 +6.8 73 +9 +9 1015.7 1013.9
15 12.01 В 5
{10}
4000 м слабый ливневой дождь 10/10 1500 м
[Cb cap]
+9.9 +7.1 83 +7 +7 1016.9 1015.1 +12.4 0.0
18 12.01 ЮВ 4
{10}
4000 м в посл. час ливневой дождь 10/10 500 м
[Cb cap]
+9.9 +7.1 83 +7 +7 1018.0 1016.2
21 12.01 ЮВ 3 4000 м 10/10 630 м
[]
+9.2 +7.6 90 +7 +7 1019.0 1017.2
00 13.01 В 3 4000 м 8/8 600 м
[Cb cap]
+8.1 +7.3 95 +5 +5 1019.4 1017.6
03 13.01 В 2 4000 м 10/10 1500 м
[Cb cap]
+8.5 +7.3 92 +7 +7 1019.4 1017.6 +8.5 0.0
06 13.01 ЮВ 5 20 км 10/10 1020 м
[Cb cap]
+9.3 +6.5 83 +6 +6 1020.1 1018.3 +8.4
09 13.01 ЮВ 5
{10}
10 км слабый ливневой дождь 10/10 1200 м
[Cb cap]
+8.9 +7.3 90 +5 +5 1021.1 1019.3
12 13.01 СВ 4
{10}
10 км 10/10 1200 м
[Cb cap]
+7.5 +4.0 78 +4 +4 1022.3 1020.4
15 13.01 СВ 3 4000 м 10/4 1500 м
[Cb cap Ac und]
+5.5 +3.1 85 +2 +2 1022.5 1020.6 +9.6 4
18 13.01 В 4 4000 м 10/3 1500 м
[Sc Ac und]
+5.2 +3.3 88 +1 +1 1022.1 1020.2
21 13.01 В 2 4000 м 10/8 600 м
[Sc Ac und]
+5.7 +3.0 83 +3 +3 1021.9 1020.0
00 14.01 СВ 3 4000 м 10/0
[Ac und]
+5.3 +3.6 89 +2 +2 1020.1 1018.2
03 14.01 СВ 3 4000 м 10/10 660 м
[Sc]
+5.7 +4.1 89 +2 +2 1018.7 1016.8 +4.7
06 14.01 СВ 2 20 км 9/3 1000 м
[Sc Ac trans]
+5.7 +3.6 86 +3 +4 1018.6 1016.7
09 14.01 З 3 20 км 9/4 1500 м
[Sc Ac trans]
+10.1 +4.5 68 +8 +9 1017.8 1016.0
12 14.01 СЗ 3 20 км слабый ливневой дождь 10/8 1200 м
[Cb cap Ac und]
+9.3 +6.1 80 +7 +7 1017.4 1015.6
15 14.01 СЗ 3 4000 м слабый ливневой дождь 10/8 1500 м
[Cb cap Ac und]
+8.9 +5.3 78 +7 +7 1018.6 1016.8 +10.5 0.5
18 14.01 В 1 4000 м слабый ливневой дождь 10/10 1500 м
[Cb cap]
+7.6 +6.7 94 +7 +7 1019.4 1017.6
21 14.01 СЗ 2 4000 м слабый ливневой дождь 10/10 1350 м
[Cb cap]
+7.5 +5.0 84 +5 +5 1021.3 1019.4
00 15.01 З 6 4000 м слабый ливневой дождь 10/10 960 м
[Cb cap]
+6.3 +3.5 82 +2 +2 1022.5 1020.6
03 15.01 С 2 4000 м слабый ливневой дождь 10/10 1000 м
[Cb cap]
+5.1 +3.7 91 +2 +2 1024.7 1022.8 +0.5 2
06 15.01 СЗ 2 10 км слабый ливневой дождь 10/10 300 м
[Cb cap]
+4.1 +2.9 92 +1 +1 1027.3 1025.4 +3.9
09 15.01 СЗ 3 10 км слабый ливневой дождь 10/10 360 м
[Cb cap]
+3.6 +2.1 90 -0 -0 1029.1 1027.2
12 15.01 СВ 3 10 км {ливн. осадки} 10/8 1500 м
[Cb cap Ac und]
+3.8 +2.3 90 -0 0 1030.0 1028.1
15 15.01 В 1 4000 м 10/3 1500 м
[Cb cap Ac As]
+4.0 +0.3 77 +3 +3 1029.9 1028.0 +5.7 8
18 15.01 СВ 1 4000 м 10/6 1500 м
[Cb cap Ac und]
+3.0 +1.4 89 +1 +1 1030.0 1028.1
21 15.01 СВ 2 4000 м 10/3 1500 м
[Cb cap Ac As]
+3.0 +1.7 91 -0 -0 1029.8 1027.9
00 16.01 СВ 2 4000 м 9/0
[Ac trans]
+3.7 -0.3 75 +1 +1 1029.0 1027.1
03 16.01 В 1 4000 м 9/0
[Ac trans]
+2.2 +0.6 89 0 0 1027.5 1025.6 +1.9 0.0
06 16.01 В 3 20 км 10/0
[Ac und]
+3.6 +1.3 85 -0 0 1027.2 1025.3 +0.8
09 16.01 СВ 3 20 км 5/3 600 м
[Sc Ci fib]
+6.9 +2.0 71 +4 +6 1025.9 1024.0
12 16.01 Ю 3 10 км 3/1 600 м
[Sc Ci fib]
+8.3 +1.5 62 +6 +7 1022.5 1020.7
15 16.01 В 3 4000 м 10/10 700 м
[Sc]
+7.3 +4.1 80 +4 +4 1020.6 1018.7 +8.8
18 16.01 В 5 4000 м 10/3 600 м
[Sc Ac und]
+4.7 +2.3 84 -0 -0 1018.8 1016.9
21 16.01 В 5 4000 м 6/0
[Ac trans]
+6.1 +1.9 74 +2 +2 1016.6 1014.7
00 17.01 В 5
{15}
4000 м 9/9 1500 м
[Cb cap]
+8.7 0.0 54 +6 +6 1014.9 1013.1
03 17.01 В 5
{10}
4000 м слабый ливневой дождь 10/8 1230 м
[Cb cap Ac und]
+6.3 +1.3 70 +2 +2 1014.0 1012.1 +4.3 0.0
06 17.01 ЮВ 7-11
{13}
20 км {ливн. осадки} 10/6 1380 м
[Cb cap Ac und]
+8.5 +0.9 59 +5 +5 1013.1 1011.3
09 17.01 В 5
{14}
10 км слабый ливневой дождь 10/10 1200 м
[Cb cap]
+8.3 +1.7 63 +5 +5 1012.5 1010.7
12 17.01 СВ 4
{15}
10 км слабый ливневой дождь 10/10 1200 м
[Cb cap]
+6.1 +4.5 89 +2 +2 1012.6 1010.7
15 17.01 СВ 6 4000 м {ливн. осадки} 9/3 1500 м
[Cb cap Ac trans]
+5.0 +3.3 89 -0 -0 1012.1 1010.2 +10.1 0.7
18 17.01 В 5 4000 м 8/0
[Ac trans]
+4.9 +2.7 86 0 0 1011.3 1009.4
21 17.01 В 6 4000 м 5/0
[Ac trans]
+5.2 +1.7 78 0 0 1009.7 1007.8
00 18.01 В 5 4000 м 9/0
[Ac trans]
+5.0 +1.7 79 0 0 1008.3 1006.4
03 18.01 СВ 6 4000 м 9/0
[Ac trans]
+4.7 +1.4 79 -0 -0 1005.8 1004.0 +4.4
06 18.01 СВ 5 20 км ясно +6.0 +1.2 71 +2 +2 1002.6 1000.8
09 18.01 В 5 20 км 9/0
[Ac trans Ci fib]
+13.5 +2.1 46 +12 +14 1000.6 998.8
12 18.01 В 5
{12}
20 км 9/0
[Ac trans Ci fib]
+13.3 +1.5 45 +12 +12 997.1 995.3
15 18.01 В 5
{11}
4000 м 10/0
[Ac und]
+12.6 +1.9 48 +11 +11 996.2 994.4 +15.6
18 18.01 В 5 4000 м 10/4 1200 м
[Cb cap Ac und]
+12.7 +2.5 50 +11 +11 996.6 994.8
21 18.01 В 3 4000 м слабый ливневой дождь 10/6 1320 м
[Cb cap Ac und]
+9.4 +3.0 64 +7 +7 999.0 997.2
00 19.01 В 5
{10}
4000 м слабый ливневой дождь 10/9 1200 м
[Cb cap Ac und]
+8.8 +2.9 66 +6 +6 998.6 996.8

 

Местоположение метеостанции Сочи аэропорт (Адлер) (Краснодарский край, Россия): широта 43.43 долгота 39.90 высота над уровнем моря 15 м.

В архиве по умолчанию представлена погода в Сочи аэропорту (Адлер) за последнюю неделю. Архивные данные за месяц целиком и за предыдущие месяцы, начиная с января 2011 года, Вы можете получить, выбрав интересующий диапазон дат из раскрывающегося списка и нажав кнопку "Ввод!".

Внимание! Время в таблицах - всемирное. Для получения местного времени необходимо прибавить поправку, которая в Сочи аэропорту (Адлер) равна 3 ч.

Смотрите также архив погоды в соседних городах и на ближайших метеорологических станциях:

Погода в Сочи (Краснодарский край, Россия) (20 км)
Погода в Красной Поляне (Краснодарский край, Россия) (37 км)
Погода в Гузерипле (Адыгея, Россия) (66 км)
Погода в Туапсе (Краснодарский край, Россия) (100 км)
Погода в Псебае (Краснодарский край, Россия) (105 км)
Погода в Горном (Краснодарский край, Россия) (107 км)
Погода в Шунтуке (Адыгея, Россия) (117 км)
Погода в Майкопе (Адыгея, Россия) (133 км)
Погода в Джубге (Краснодарский край, Россия) (138 км)
Погода в Зеленчукской (Карачаево-Черкессия, Россия) (143 км)

Пояснения к столбцам:

Ветер - указаны скорость ветра в м/с - средняя за 10 мин, порывы в срок и между сроками (в фигурных скобках) и направление, откуда дует ветер: С - северный, СВ - северо-восточный, В - восточный, ЮВ - юго-восточный, Ю - южный, ЮЗ - юго-западный, З - западный, СЗ - северо-западный.
Видимость - горизонтальная дальность видимости в метрах или километрах. При видимости от 1 до 10 км при отсутствии осадков обычно наблюдается дымка, при ухудшении видимости до 1 км и менее - туман. В сухую погоду видимость может ухудшаться дымом, пылью или мглою.
Явления - указаны атмосферные явления, наблюдавшиеся в срок или в последний час перед сроком; фигурными скобками обозначены явления, наблюдавшиеся между сроками (за 1-3 часа до срока); квадратными скобками обозначены град или гололедные отложения с указанием их диаметра в мм.
Облачность - указаны через наклонную черту общая и нижняя облачность в баллах и высота нижней границы облаков в метрах; квадратными скобками обозначены формы облаков: Ci - перистые, Cs - перисто-слоистые, Cc - перисто-кучевые, Ac - высококучевые, As - высокослоистые, Sc - слоисто-кучевые, Ns - слоисто-дождевые, Cu - кучевые, Cb - кучево-дождевые. Подробнее классификацию облаков см. в Атласе облаков (PDF).
T - Температура воздуха - температура, измеренная на высоте 2 м над землей.
Td - Температура точки росы - температура, при понижении до которой содержащийся в воздухе водяной пар достигнет насыщения.
f - Относительная влажность воздуха - влажноcть воздуха, измеренная на высоте 2 м над землей.
Te - Эффективная температура - температура, которую ощущает одетый по сезону человек в тени. Характеристика душности погоды. При расчете учитывается влияние влажности воздуха и скорости ветра на теплоощущения человека.
Tes - Эффективная температура на солнце - температура, которую ощущает человек, с поправкой на солнечный нагрев. Характеристика знойности погоды. Зависит от высоты солнца над горизонтом, облачности и скорости ветра. Ночью, в пасмурную погоду, а также при ветре 12 м/с и более поправка равна нулю.
P - Атмосферное давление - приведенное к уровню моря атмосферное давление.
Po - Атмосферное давление - измеренное на уровне метеостанции атмосферное давление.
Tmin - Минимальная температура - минимум температуры воздуха на высоте 2 м над землей.
Tmax - Максимальная температура - максимум температуры воздуха на высоте 2 м над землей.
R - Количество осадков - Количество выпавших осадков за период времени, мм. При наведении курсора мыши на число - период времени, за который выпало указанное количество осадков.
R24 - Количество осадков - Количество выпавших осадков за 24 часа, мм.
S - Снежный покров - Высота снежного покрова, см. При наведении курсора мыши на число - состояние снежного покрова и степень покрытия местности в баллах.